Cloud_Cover
0 0 0 0 0 0 0 0 0 0 0 0 0 0 0 0 0 3 0 0 0 0 0 100 19 97 100 100 100 100 100 100 100 100 100 100 100 100 100 100 72 100 100 100
0 0 0 0 0 0 0 0 0 0 0 0 0 0 0 0 5 5 8 2 10 3 0 0 5 22 74 100 100 100 100 100 100 100 100 100 100 100 100 100 100 100 100 100
0 0 0 0 0 0 0 0 0 0 0 0 0 0 0 0 5 3 6 100 92 61 2 0 0 20 4 100 98 100 100 100 100 100 100 100 100 100 100 100 100 100 100 100
0 0 4 0 0 0 0 0 0 0 0 0 0 1 0 0 0 4 44 100 100 100 95 24 0 4 4 87 100 100 100 100 100 100 100 100 100 100 100 100 100 100 100 100
0 0 2 4 0 0 0 0 0 0 0 1 0 0 0 0 1 22 99 100 100 100 100 89 0 3 5 4 99 100 100 100 100 100 100 100 100 100 100 100 100 100 100 100
0 5 6 1 0 0 0 0 0 4 0 4 0 0 0 0 2 32 60 100 100 100 100 100 27 5 62 76 94 100 100 100 100 100 100 100 100 100 100 100 100 100 100 100
3 5 5 1 5 0 0 0 3 5 5 0 0 0 0 0 5 63 100 100 100 100 100 100 100 100 100 100 100 98 90 100 100 100 100 100 100 100 100 100 100 100 100 100
71 85 5 5 25 1 0 0 4 5 5 4 0 0 0 0 5 60 83 100 100 80 92 100 100 100 100 100 100 100 100 100 94 100 100 100 100 100 100 100 100 100 100 100
5 91 76 5 14 5 4 0 5 6 5 6 2 0 0 0 0 32 87 100 100 100 100 100 100 100 100 100 100 100 100 100 100 100 100 100 81 100 100 100 100 100 100 100
5 59 100 82 7 5 0 5 5 72 5 5 5 0 0 0 0 15 82 99 98 100 100 100 100 100 100 100 100 100 100 100 100 100 100 96 100 100 100 100 100 100 100 100
5 19 99 99 9 17 6 5 18 7 14 5 5 1 0 0 0 14 69 94 90 100 100 100 100 100 100 100 100 100 100 92 100 100 100 100 100 100 100 100 100 100 100 100
5 56 67 100 100 100 68 5 28 5 5 5 5 5 0 0 0 0 0 35 76 93 100 100 100 100 100 100 100 100 100 100 100 100 100 100 100 100 100 100 100 100 100 100
2 31 72 56 100 100 100 27 6 8 5 5 5 5 3 0 0 0 0 43 85 99 100 100 100 100 100 100 100 100 72 96 98 96 100 100 100 100 100 100 100 100 100 100
5 5 6 5 39 100 100 100 20 16 5 5 5 5 5 1 0 0 0 1 95 99 100 100 100 100 100 99 82 100 58 67 56 91 100 100 100 100 100 100 100 100 100 100
1 4 5 24 7 22 100 100 76 55 5 5 5 5 0 0 0 0 0 0 24 70 38 39 82 83 98 78 39 84 95 18 19 30 72 100 100 100 100 100 100 100 100 100
0 5 5 48 9 43 5 98 99 36 21 5 5 5 5 2 0 4 0 0 0 0 70 0 39 0 16 16 0 0 2 28 3 13 98 100 100 100 100 100 100 100 100 100
5 5 8 86 44 66 98 100 100 92 52 6 5 5 5 5 5 5 7 5 1 0 0 0 0 0 0 0 0 0 0 0 4 3 72 100 83 100 100 100 100 100 100 100
23 23 23 100 100 100 100 100 79 100 22 6 27 5 5 5 4 5 36 5 5 4 0 0 0 0 0 0 0 2 4 4 8 100 84 100 100 100 100 100 100 100 100 100
99 43 69 100 100 100 100 86 95 100 6 5 18 11 34 5 5 5 5 5 5 5 5 5 3 1 0 0 0 0 1 5 5 5 15 100 100 100 100 100 100 100 100 100
100 100 100 100 100 100 19 74 100 100 100 99 100 40 6 5 5 4 4 5 5 12 5 5 5 5 5 5 0 0 0 0 0 4 5 8 10 5 4 45 91 95 97 96
87 100 100 100 100 99 96 100 100 85 72 95 99 94 51 52 5 5 4 5 5 5 7 45 5 5 5 5 5 5 0 3 0 0 0 0 3 4 4 5 0 0 0 0
94 100 100 100 91 100 7 100 100 8 41 93 100 100 51 20 5 5 5 5 5 5 5 65 66 6 5 5 5 5 5 4 5 4 1 3 4 0 0 0 0 0 0 0
40 100 100 100 100 90 100 100 100 100 100 70 100 61 34 13 5 5 5 5 5 0 4 65 41 6 16 5 5 5 5 5 5 61 6 5 5 5 5 0 0 0 0 0
100 100 100 100 100 100 100 100 100 100 80 100 100 50 90 5 4 0 5 45 5 1 1 5 26 5 5 8 23 79 97 93 9 82 83 47 7 5 5 5 5 5 5 5
100 100 100 100 100 66 95 100 96 100 100 59 46 100 100 30 5 2 5 5 5 11 5 5 5 5 5 24 21 65 91 100 99 100 98 86 87 54 38 5 5 5 5 5
100 100 100 100 100 100 100 100 100 100 26 46 100 100 100 100 99 49 5 5 5 36 5 5 5 5 5 53 100 94 51 100 100 100 100 100 84 98 75 51 47 54 5 12